Weather History for KHYS - April, 2014

Change the Weather History Date:

Tuesday, April 8, 2014

  Actual Average (KHLC) Record (KHLC)
Temperature  
Mean Temperature 50 °F 49 °F  
Max Temperature 64 °F 63 °F 87 °F (1988)
Min Temperature 37 °F 35 °F 15 °F (1914)
Degree Days  
Heating Degree Days 14    
Moisture  
Dew Point 28 °F    
Average Humidity 54    
Maximum Humidity 75    
Minimum Humidity 21    
Precipitation  
Precipitation 0.00 in 0.06 in - ()
Month to date precipitation 0.43  
Year to date precipitation 3.03  
Sea Level Pressure  
Sea Level Pressure 30.11 in    
Wind  
Wind Speed 12 mph (NNW)    
Max Wind Speed 23 mph    
Max Gust Speed 32 mph    
Visibility 10 miles    
Events      
T = Trace of Precipitation, MM = Missing Value Source: NWS Daily Summary

Daily Weather History Graph

Daily Weather History Graph

Search for Another Location

Airport or City:

Trip Planner

Search our weather history database for the weather conditions in past years. The results will help you decide how hot, cold, wet, or windy it might be!

Date:

Astronomy

Apr. 08, 2014 Rise Set
Actual Time 7:10 AM CDT 8:07 PM CDT
Civil Twilight 6:43 AM CDT 8:34 PM CDT
Nautical Twilight 6:11 AM CDT 9:06 PM CDT
Astronomical Twilight 5:38 AM CDT 9:40 PM CDT
Moon 2:05 PM CDT (4/8) 3:21 AM CDT (4/8)
Length of Visible Light 13h 50m
Length of Day
12h 56m
Waxing Gibbous, 63% of the Moon is Illuminated
Apr 8
Waxing Gibbous
Apr 15
Full
Apr 22
Last Quarter
Apr 29
New
May 6
First Quarter

Hourly Weather History & Observations

Time (CDT) Temp. Windchill Dew Point Humidity Pressure Visibility Wind Dir Wind Speed Gust Speed Precip Events Conditions
12:15 AM 42.8 °F 35.8 °F 32.0 °F 66% 30.08 in 10.0 mi NW 13.8 mph - N/A   Clear
12:35 AM 42.8 °F 37.0 °F 32.0 °F 66% 30.08 in 10.0 mi NNW 10.4 mph - N/A   Clear
12:55 AM 42.8 °F 35.1 °F 32.0 °F 66% 30.09 in 10.0 mi NNW 16.1 mph - N/A   Clear
1:15 AM 41.0 °F 33.5 °F 30.2 °F 65% 30.08 in 10.0 mi NNW 13.8 mph - N/A   Clear
1:35 AM 41.0 °F 33.9 °F 30.2 °F 65% 30.08 in 10.0 mi NNW 12.7 mph - N/A   Clear
1:55 AM 39.2 °F 31.2 °F 30.2 °F 70% 30.09 in 10.0 mi NW 13.8 mph - N/A   Clear
2:15 AM 39.2 °F 32.0 °F 30.2 °F 70% 30.09 in 10.0 mi NW 11.5 mph - N/A   Clear
2:35 AM 39.2 °F 32.5 °F 30.2 °F 70% 30.09 in 10.0 mi NW 10.4 mph - N/A   Clear
2:55 AM 37.4 °F 30.3 °F 28.4 °F 70% 30.09 in 10.0 mi WNW 10.4 mph - N/A   Clear
3:15 AM 37.4 °F 29.3 °F 30.2 °F 75% 30.09 in 10.0 mi WNW 12.7 mph - N/A   Clear
3:35 AM 37.4 °F 29.3 °F 30.2 °F 75% 30.08 in 10.0 mi WNW 12.7 mph - N/A   Clear
3:55 AM 37.4 °F 28.9 °F 30.2 °F 75% 30.08 in 10.0 mi WNW 13.8 mph - N/A   Mostly Cloudy
4:15 AM 37.4 °F 29.3 °F 30.2 °F 75% 30.08 in 10.0 mi WNW 12.7 mph - N/A   Overcast
4:35 AM 39.2 °F 31.2 °F 30.2 °F 70% 30.08 in 10.0 mi WNW 13.8 mph - N/A   Overcast
4:55 AM 39.2 °F 31.6 °F 30.2 °F 70% 30.09 in 10.0 mi WNW 12.7 mph - N/A   Overcast
5:15 AM 39.2 °F 31.6 °F 30.2 °F 70% 30.09 in 10.0 mi NW 12.7 mph - N/A   Overcast
5:35 AM 39.2 °F 31.6 °F 30.2 °F 70% 30.10 in 10.0 mi WNW 12.7 mph - N/A   Overcast
5:55 AM 39.2 °F 31.6 °F 30.2 °F 70% 30.10 in 10.0 mi WNW 12.7 mph - N/A   Overcast
6:15 AM 39.2 °F 31.6 °F 30.2 °F 70% 30.11 in 10.0 mi WNW 12.7 mph - N/A   Overcast
6:35 AM 39.2 °F 31.2 °F 28.4 °F 65% 30.12 in 10.0 mi WNW 13.8 mph - N/A   Overcast
6:55 AM 39.2 °F 31.2 °F 28.4 °F 65% 30.12 in 10.0 mi WNW 13.8 mph - N/A   Overcast
7:15 AM 39.2 °F 31.6 °F 28.4 °F 65% 30.13 in 10.0 mi NW 12.7 mph - N/A   Overcast
7:35 AM 39.2 °F 31.2 °F 28.4 °F 65% 30.13 in 10.0 mi WNW 13.8 mph - N/A   Overcast
7:55 AM 39.2 °F 32.0 °F 28.4 °F 65% 30.14 in 10.0 mi NW 11.5 mph - N/A   Overcast
8:15 AM 39.2 °F 33.0 °F 30.2 °F 70% 30.15 in 10.0 mi WNW 9.2 mph - N/A   Overcast
8:35 AM 41.0 °F 34.3 °F 30.2 °F 65% 30.15 in 10.0 mi NW 11.5 mph - N/A   Overcast
8:55 AM 42.8 °F 37.0 °F 30.2 °F 61% 30.15 in 10.0 mi NW 10.4 mph - N/A   Mostly Cloudy
9:15 AM 46.4 °F 41.5 °F 30.2 °F 53% 30.15 in 10.0 mi NW 10.4 mph - N/A   Scattered Clouds
9:35 AM 48.2 °F - 30.2 °F 50% 30.15 in 10.0 mi NW 10.4 mph - N/A   Scattered Clouds
9:55 AM 50.0 °F - 33.8 °F 54% 30.16 in 10.0 mi NW 10.4 mph - N/A   Mostly Cloudy
10:15 AM 51.8 °F - 33.8 °F 50% 30.16 in 10.0 mi NW 9.2 mph - N/A   Mostly Cloudy
10:35 AM 53.6 °F - 30.2 °F 41% 30.16 in 10.0 mi NW 12.7 mph 17.3 mph N/A   Mostly Cloudy
10:55 AM 55.4 °F - 28.4 °F 36% 30.16 in 10.0 mi WNW 10.4 mph - N/A   Partly Cloudy
11:15 AM 55.4 °F - 28.4 °F 36% 30.16 in 10.0 mi WNW 11.5 mph - N/A   Clear
11:35 AM 57.2 °F - 28.4 °F 33% 30.17 in 10.0 mi NNW 10.4 mph - N/A   Clear
11:55 AM - - - N/A% 30.16 in 10.0 mi WNW 13.8 mph 20.7 mph N/A   Clear
12:15 PM - - - N/A% 30.15 in 10.0 mi NW 16.1 mph 19.6 mph N/A   Clear
12:35 PM - - - N/A% 30.15 in 10.0 mi NNW 13.8 mph 24.2 mph N/A   Clear
12:55 PM - - - N/A% 30.14 in 10.0 mi NNW 15.0 mph 20.7 mph N/A   Clear
1:15 PM - - - N/A% 30.13 in 10.0 mi NNW 15.0 mph 21.9 mph N/A   Clear
1:35 PM - - - N/A% 30.13 in 10.0 mi NNW 17.3 mph 32.2 mph N/A   Clear
1:55 PM - - - N/A% 30.12 in 10.0 mi NNW 19.6 mph 26.5 mph N/A   Clear
2:15 PM - - - N/A% 30.12 in 10.0 mi NNW 18.4 mph 28.8 mph N/A   Clear
2:35 PM - - - N/A% 30.11 in 10.0 mi NNW 23.0 mph 26.5 mph N/A   Clear
2:55 PM - - - N/A% 30.11 in 10.0 mi North 15.0 mph 24.2 mph N/A   Clear
3:15 PM - - - N/A% 30.11 in 10.0 mi North 15.0 mph 18.4 mph N/A   Clear
3:35 PM - - - N/A% 30.10 in 10.0 mi North 21.9 mph 26.5 mph N/A   Clear
3:55 PM 64.4 °F - 23.0 °F 21% 30.10 in 10.0 mi NW 9.2 mph 27.6 mph N/A   Clear
4:15 PM 64.4 °F - 24.8 °F 22% 30.10 in 10.0 mi NNW 18.4 mph 25.3 mph N/A   Clear
4:35 PM 64.4 °F - 24.8 °F 22% 30.10 in 10.0 mi North 15.0 mph 23.0 mph N/A   Clear
4:55 PM 64.4 °F - 24.8 °F 22% 30.10 in 10.0 mi NNW 19.6 mph 25.3 mph N/A   Clear
5:15 PM - - - N/A% 30.10 in 10.0 mi North 12.7 mph - N/A   Clear
5:35 PM - - - N/A% 30.09 in 10.0 mi NNW 15.0 mph 23.0 mph N/A   Clear
5:55 PM - - - N/A% 30.09 in 10.0 mi North 13.8 mph 17.3 mph N/A   Clear
6:15 PM - - - N/A% 30.09 in 10.0 mi NNW 8.1 mph - N/A   Clear
6:35 PM - - - N/A% 30.09 in 10.0 mi NNW 10.4 mph - N/A   Clear
6:55 PM - - - N/A% 30.09 in 10.0 mi NNW 10.4 mph - N/A   Clear
7:15 PM - - - N/A% 30.09 in 10.0 mi NNE 8.1 mph - N/A   Clear
7:35 PM - - - N/A% 30.09 in 10.0 mi NE 4.6 mph - N/A   Clear
7:55 PM 59.0 °F - 24.8 °F 27% 30.09 in 10.0 mi NE 8.1 mph - N/A   Clear
8:15 PM 55.4 °F - 24.8 °F 31% 30.09 in 10.0 mi East 8.1 mph - N/A   Clear
8:35 PM 51.8 °F - 24.8 °F 35% 30.09 in 10.0 mi East 8.1 mph - N/A   Clear
8:55 PM 51.8 °F - 24.8 °F 35% 30.09 in 10.0 mi ESE 5.8 mph - N/A   Clear
9:15 PM 48.2 °F - 24.8 °F 40% 30.10 in 10.0 mi ESE 8.1 mph - N/A   Clear
9:35 PM 46.4 °F 42.9 °F 24.8 °F 43% 30.11 in 10.0 mi SE 6.9 mph - N/A   Clear
9:55 PM 46.4 °F 42.4 °F 24.8 °F 43% 30.11 in 10.0 mi SE 8.1 mph - N/A   Clear
10:15 PM 44.6 °F 40.2 °F 24.8 °F 46% 30.11 in 10.0 mi SE 8.1 mph - N/A   Clear
10:35 PM 44.6 °F 41.4 °F 24.8 °F 46% 30.11 in 10.0 mi SSE 5.8 mph - N/A   Clear
10:55 PM 44.6 °F 40.7 °F 24.8 °F 46% 30.10 in 10.0 mi SE 6.9 mph - N/A   Clear
11:15 PM 42.8 °F 38.6 °F 24.8 °F 49% 30.10 in 10.0 mi SE 6.9 mph - N/A   Clear
11:35 PM 42.8 °F 39.3 °F 23.0 °F 46% 30.09 in 10.0 mi SSE 5.8 mph - N/A   Clear
11:55 PM 41.0 °F 37.1 °F 24.8 °F 53% 30.09 in 10.0 mi SSE 5.8 mph - N/A   Clear